Location: Bratislava
(0.0000°N, 17.1167°E)
Time: 05:46:14
(UTC+01:00)

deb Ariane - Pass Details

Date: 24 January 2021
Orbit: 301 x 22545 km, 6.8° (Epoch: 04 March)

Event Time Altitude Azimuth Distance (km) Brightness Sun altitude
Rises 18:31:26 0° 261° (W) 1,997 8.4 -6.5°
Reaches altitude 10° 18:32:47 10° 260° (W) 1,294 6.9 -6.9°
Maximum altitude 18:35:08 83° 173° (S) 508 3.2 -7.4°
Drops below altitude 10° 18:41:31 10° 84° (E) 3,426 6.7 -8.9°
Enters shadow 18:41:53 - 84° (E) 3,608 6.8 -9.0°
